Location: South Range
(44.4886°N, 65.7879°W)
Time: 06:29:10
(UTC-03:00)

Iridium 56 - Visible Passes

Search period start: 29 April 2017 00:00
Search period end: 09 May 2017 00:00
Orbit: 776 x 779 km, 86.4° (Epoch: 27 April)

Date Brightness Start Highest point End Pass type
(mag) Time Alt. Az. Time Alt. Az. Time Alt. Az.
29 Apr 5.6 22:52:11 10° N 22:57:21 58° E 22:58:07 53° ESE visible
30 Apr 7.6 00:34:07 10° NW 00:37:33 18° WNW 00:38:36 17° W visible
30 Apr 6.4 22:18:58 10° NNE 22:23:40 33° E 22:24:54 29° ESE visible
30 Apr 6.8 23:59:46 10° NNW 00:04:19 31° W 00:05:24 29° WSW visible
01 May 7.1 21:46:09 10° NNE 21:49:52 19° ENE 21:51:43 16° E visible
01 May 6.0 23:25:51 10° NNW 23:30:57 55° W 23:32:12 44° SW visible
02 May 7.6 21:14:44 10° NE 21:15:53 11° ENE 21:17:02 10° E visible
02 May 5.4 22:52:13 10° N 22:57:29 83° E 22:59:01 47° S visible
03 May 8.0 00:35:16 10° NW 00:37:25 13° WNW 00:39:30 10° W visible
03 May 5.9 22:18:50 10° N 22:23:53 46° E 22:25:52 31° SE visible
04 May 7.4 00:00:17 10° NNW 00:04:15 22° W 00:06:21 18° WSW visible
04 May 6.7 21:45:45 10° NNE 21:50:09 27° ENE 21:52:42 18° ESE visible
04 May 6.6 23:26:09 10° NNW 23:30:58 39° W 23:33:11 26° SW visible
05 May 7.3 21:13:14 10° NE 21:16:16 15° ENE 21:19:18 10° ESE visible
05 May 5.7 22:52:21 10° N 22:57:34 70° W 23:00:03 31° SSW visible
06 May 5.5 22:18:49 10° N 22:24:02 66° E 22:26:55 26° SSE visible
07 May 7.9 00:01:04 10° NW 00:04:08 16° WNW 00:07:13 10° WSW visible
07 May 6.2 21:45:32 10° NNE 21:50:23 37° E 21:53:48 17° SE visible
07 May 7.2 23:26:33 10° NNW 23:30:56 28° W 23:34:18 15° SW visible
08 May 6.9 21:12:37 10° NNE 21:16:36 21° ENE 21:20:32 10° SE visible
08 May 6.3 22:52:34 10° NNW 22:57:36 49° W 23:01:12 18° SSW visible
